When you browse on this site, cookies collect data to enhance your experience and personalize the content and advertising you see.
Visit our Privacy Policy to learn more. By continuing to use the site, you agree to this use of cookies and data.
  • Em Portugal
  • Lista de países
  • Para 7 dias
  • Temperatura da água
  • Mapa do tempo
  • Widgets de tempo
  • user-avatar
    Iniciar Sessão

    Previsão horária em Ksiki

    Hoje, 18 Setembro, Quarta-feira

    Tempo Temperatura Precipitação Vento Pressão Humidade
    00:00 +7°C° 0.3 mm 5 m/s 723 mmHg 88%
    01:00 +6°C° 0 mm 4 m/s 724 mmHg 91%
    02:00 +5°C° 0.1 mm 4 m/s 724 mmHg 91%
    03:00 +5°C° 0.1 mm 4 m/s 724 mmHg 92%
    04:00 +5°C° 0.1 mm 5 m/s 724 mmHg 92%
    05:00 +5°C° 0.1 mm 5 m/s 725 mmHg 91%
    06:00 +5°C° 0.1 mm 5 m/s 725 mmHg 90%
    07:00 +5°C° 0 mm 5 m/s 726 mmHg 88%
    08:00 +6°C° 0.1 mm 5 m/s 727 mmHg 87%
    09:00 +6°C° 0.1 mm 5 m/s 728 mmHg 86%
    10:00 +6°C° 0.1 mm 5 m/s 728 mmHg 85%
    11:00 +7°C° 0.1 mm 5 m/s 728 mmHg 80%
    12:00 +8°C° 0.1 mm 5 m/s 728 mmHg 75%
    13:00 +10°C° 0.1 mm 4 m/s 728 mmHg 70%
    14:00 +10°C° 0 mm 4 m/s 728 mmHg 68%
    15:00 +11°C° 0 mm 4 m/s 728 mmHg 65%
    16:00 +11°C° 0 mm 4 m/s 728 mmHg 62%
    17:00 +10°C° 0 mm 4 m/s 728 mmHg 67%
    18:00 +8°C° 0 mm 3 m/s 729 mmHg 72%
    19:00 +7°C° 0 mm 2 m/s 729 mmHg 77%
    20:00 +7°C° 0 mm 2 m/s 729 mmHg 77%
    21:00 +7°C° 0 mm 2 m/s 729 mmHg 77%
    22:00 +7°C° 0 mm 2 m/s 730 mmHg 77%
    23:00 +7°C° 0 mm 2 m/s 730 mmHg 80%

    Amanhã, 19 Setembro, Quinta-feira

    Tempo Temperatura Precipitação Vento Pressão Humidade
    00:00 +6°C° 0 mm 2 m/s 730 mmHg 84%
    01:00 +6°C° 0 mm 2 m/s 730 mmHg 87%
    02:00 +5°C° 0 mm 2 m/s 730 mmHg 87%
    03:00 +5°C° 0 mm 2 m/s 730 mmHg 87%
    04:00 +5°C° 0 mm 2 m/s 730 mmHg 87%
    05:00 +5°C° 0 mm 2 m/s 730 mmHg 86%
    06:00 +6°C° 0 mm 2 m/s 730 mmHg 84%
    07:00 +6°C° 0 mm 2 m/s 731 mmHg 82%
    08:00 +7°C° 0 mm 3 m/s 731 mmHg 75%
    09:00 +9°C° 0 mm 3 m/s 731 mmHg 67%
    10:00 +10°C° 0 mm 3 m/s 732 mmHg 59%
    11:00 +10°C° 0 mm 3 m/s 732 mmHg 59%
    12:00 +11°C° 0 mm 3 m/s 731 mmHg 59%
    13:00 +11°C° 0 mm 3 m/s 731 mmHg 59%
    14:00 +11°C° 0.1 mm 3 m/s 731 mmHg 61%
    15:00 +11°C° 0.1 mm 3 m/s 731 mmHg 63%
    16:00 +11°C° 0.1 mm 3 m/s 731 mmHg 64%
    17:00 +9°C° 0.1 mm 3 m/s 731 mmHg 72%
    18:00 +8°C° 0.1 mm 2 m/s 731 mmHg 80%
    19:00 +6°C° 0.1 mm 2 m/s 731 mmHg 87%
    20:00 +6°C° 0.1 mm 2 m/s 731 mmHg 89%
    21:00 +5°C° 0.1 mm 2 m/s 732 mmHg 91%
    22:00 +5°C° 0.1 mm 2 m/s 732 mmHg 93%
    23:00 +5°C° 0 mm 2 m/s 732 mmHg 93%

    Depois de amanhã, 20 Setembro, Sexta-feira

    Tempo Temperatura Precipitação Vento Pressão Humidade
    00:00 +5°C° 0 mm 2 m/s 732 mmHg 93%
    01:00 +4°C° 0 mm 2 m/s 732 mmHg 93%
    02:00 +4°C° 0 mm 2 m/s 732 mmHg 94%
    03:00 +4°C° 0 mm 2 m/s 732 mmHg 94%
    04:00 +4°C° 0 mm 1 m/s 733 mmHg 94%
    05:00 +5°C° 0 mm 1 m/s 733 mmHg 93%
    06:00 +6°C° 0 mm 1 m/s 733 mmHg 91%
    07:00 +6°C° 0 mm 2 m/s 733 mmHg 90%
    08:00 +7°C° 0 mm 2 m/s 733 mmHg 81%
    09:00 +9°C° 0 mm 2 m/s 734 mmHg 73%
    10:00 +12°C° 0 mm 2 m/s 734 mmHg 64%
    11:00 +12°C° 0 mm 2 m/s 734 mmHg 59%
    12:00 +13°C° 0 mm 2 m/s 734 mmHg 54%
    13:00 +14°C° 0 mm 2 m/s 733 mmHg 50%
    14:00 +13°C° 0 mm 2 m/s 733 mmHg 52%
    15:00 +13°C° 0 mm 2 m/s 733 mmHg 53%
    16:00 +13°C° 0 mm 2 m/s 733 mmHg 55%
    17:00 +10°C° 0 mm 2 m/s 733 mmHg 62%
    18:00 +9°C° 0 mm 1 m/s 733 mmHg 68%
    19:00 +7°C° 0 mm 1 m/s 733 mmHg 74%
    20:00 +7°C° 0 mm 1 m/s 733 mmHg 75%
    21:00 +7°C° 0 mm 1 m/s 733 mmHg 75%
    22:00 +6°C° 0 mm 1 m/s 733 mmHg 76%
    23:00 +6°C° 0 mm 1 m/s 733 mmHg 76%

    21 Setembro, Sábado

    Tempo Temperatura Precipitação Vento Pressão Humidade
    00:00 +6°C° 0 mm 1 m/s 733 mmHg 77%
    01:00 +6°C° 0 mm 1 m/s 733 mmHg 77%
    02:00 +5°C° 0 mm 1 m/s 733 mmHg 77%
    03:00 +5°C° 0 mm 1 m/s 733 mmHg 77%
    04:00 +5°C° 0 mm 1 m/s 733 mmHg 77%
    05:00 +6°C° 0 mm 1 m/s 733 mmHg 74%
    06:00 +7°C° 0 mm 1 m/s 733 mmHg 71%
    07:00 +8°C° 0 mm 1 m/s 733 mmHg 67%
    08:00 +11°C° 0 mm 1 m/s 733 mmHg 60%
    09:00 +13°C° 0 mm 1 m/s 733 mmHg 52%
    10:00 +16°C° 0 mm 1 m/s 734 mmHg 44%
    11:00 +18°C° 0 mm 1 m/s 733 mmHg 42%
    12:00 +19°C° 0 mm 1 m/s 733 mmHg 40%
    13:00 +19°C° 0 mm 1 m/s 732 mmHg 38%
    14:00 +19°C° 0 mm 1 m/s 732 mmHg 43%
    15:00 +19°C° 0 mm 1 m/s 732 mmHg 48%
    16:00 +18°C° 0 mm 1 m/s 731 mmHg 52%
    17:00 +15°C° 0 mm 1 m/s 731 mmHg 58%
    18:00 +13°C° 0 mm 1 m/s 731 mmHg 63%
    19:00 +10°C° 0 mm 1 m/s 731 mmHg 69%
    20:00 +10°C° 0 mm 1 m/s 731 mmHg 70%
    21:00 +9°C° 0 mm 1 m/s 731 mmHg 72%
    22:00 +9°C° 0 mm 1 m/s 731 mmHg 73%
    23:00 +9°C° 0 mm 1 m/s 730 mmHg 73%

    22 Setembro, Domingo

    Tempo Temperatura Precipitação Vento Pressão Humidade
    00:00 +8°C° 0 mm 1 m/s 730 mmHg 74%
    01:00 +8°C° 0 mm 1 m/s 730 mmHg 74%
    02:00 +8°C° 0 mm 1 m/s 730 mmHg 73%
    03:00 +7°C° 0 mm 1 m/s 729 mmHg 73%
    04:00 +7°C° 0 mm 1 m/s 729 mmHg 72%
    05:00 +8°C° 0 mm 1 m/s 729 mmHg 69%
    06:00 +9°C° 0 mm 1 m/s 729 mmHg 67%
    07:00 +10°C° 0 mm 1 m/s 729 mmHg 64%
    08:00 +13°C° 0 mm 1 m/s 729 mmHg 57%
    09:00 +15°C° 0 mm 1 m/s 729 mmHg 51%
    10:00 +19°C° 0 mm 1 m/s 729 mmHg 44%
    11:00 +20°C° 0 mm 1 m/s 729 mmHg 42%
    12:00 +21°C° 0 mm 1 m/s 728 mmHg 41%
    13:00 +22°C° 0 mm 1 m/s 728 mmHg 39%
    14:00 +21°C° 0 mm 1 m/s 727 mmHg 44%
    15:00 +21°C° 0 mm 1 m/s 727 mmHg 49%
    16:00 +20°C° 0 mm 1 m/s 726 mmHg 55%
    17:00 +18°C° 0 mm 1 m/s 726 mmHg 59%
    18:00 +15°C° 0 mm 1 m/s 725 mmHg 63%
    19:00 +13°C° 0 mm 1 m/s 725 mmHg 67%
    20:00 +13°C° 0 mm 1 m/s 724 mmHg 65%
    21:00 +13°C° 0 mm 1 m/s 724 mmHg 63%
    22:00 +12°C° 0 mm 1 m/s 724 mmHg 62%
    23:00 +12°C° 0 mm 1 m/s 723 mmHg 62%

    23 Setembro, Segunda-feira

    Tempo Temperatura Precipitação Vento Pressão Humidade
    00:00 +12°C° 0 mm 1 m/s 723 mmHg 61%
    01:00 +12°C° 0 mm 1 m/s 722 mmHg 61%
    02:00 +12°C° 0 mm 1 m/s 722 mmHg 62%
    03:00 +12°C° 0 mm 1 m/s 721 mmHg 63%
    04:00 +12°C° 0 mm 1 m/s 721 mmHg 64%
    05:00 +12°C° 0 mm 1 m/s 721 mmHg 66%
    06:00 +13°C° 0 mm 1 m/s 721 mmHg 68%
    07:00 +14°C° 0 mm 1 m/s 720 mmHg 69%
    08:00 +16°C° 0 mm 1 m/s 721 mmHg 66%
    09:00 +19°C° 0 mm 1 m/s 721 mmHg 63%
    10:00 +21°C° 0 mm 1 m/s 721 mmHg 60%
    11:00 +20°C° 0 mm 2 m/s 721 mmHg 59%
    12:00 +21°C° 0 mm 2 m/s 720 mmHg 59%
    13:00 +22°C° 0 mm 3 m/s 720 mmHg 59%
    14:00 +21°C° 0.1 mm 3 m/s 720 mmHg 64%
    15:00 +20°C° 0.1 mm 3 m/s 720 mmHg 68%
    16:00 +18°C° 0.1 mm 3 m/s 720 mmHg 73%
    17:00 +17°C° 0.1 mm 3 m/s 720 mmHg 77%
    18:00 +16°C° 0.1 mm 2 m/s 720 mmHg 81%
    19:00 +14°C° 0.1 mm 2 m/s 720 mmHg 84%
    20:00 +14°C° 0.5 mm 2 m/s 720 mmHg 88%
    21:00 +14°C° 0.5 mm 2 m/s 721 mmHg 91%
    22:00 +13°C° 0.5 mm 2 m/s 721 mmHg 95%
    23:00 +13°C° 0.8 mm 2 m/s 721 mmHg 95%
    Mostrar mais